Theta_e
303 304 303 303 303 303 302 301 300 301 300 299 299 301 302 301 301 300 300 301 301 302 302 302 302 302 302 302 302 302 302 301 301 301 300 301 302 301 302 302 303 303 302 301 300 300 300 300 301 302 304 310 316 320 321 321 322 324 325 326 327 326 325 325 325 327 328 327 327 327 328 328 326 324 325 325 325 324 324 323 323 324 325 326 328 329 330 330
303 303 303 303 302 302 302 301 301 300 300 299 299 301 302 301 301 300 301 302 302 302 302 302 302 302 302 302 302 302 301 301 300 300 301 302 302 302 303 303 303 303 303 302 300 300 301 301 302 302 308 315 318 320 321 322 322 324 325 326 326 324 326 327 327 329 329 328 327 327 328 328 326 324 324 325 324 323 324 322 322 323 324 326 328 329 329 329
303 303 303 302 301 301 301 301 300 300 300 299 300 302 301 301 300 301 302 302 302 302 302 302 302 302 302 302 302 301 301 301 300 301 302 303 303 303 304 303 303 303 304 303 301 300 300 301 302 303 311 317 318 320 322 322 323 324 326 327 326 324 327 328 330 331 329 328 327 327 328 327 326 324 325 326 325 325 325 322 322 322 322 325 327 328 329 328
302 303 303 302 301 301 300 301 300 300 299 299 301 302 301 300 300 301 303 303 302 302 303 303 302 302 302 302 302 301 301 300 302 303 303 303 303 303 304 304 304 303 303 303 302 300 300 301 302 304 313 317 318 320 321 322 324 323 325 326 326 324 326 327 329 330 328 328 327 328 327 326 325 324 325 325 325 326 325 323 322 322 322 325 326 328 328 328
302 302 303 302 301 301 301 301 300 300 299 299 301 301 301 301 301 302 303 303 302 303 303 303 303 302 302 302 302 302 301 301 303 304 303 303 303 303 303 303 303 303 303 303 302 301 300 302 302 304 312 317 317 319 321 322 324 323 323 325 326 325 325 327 328 328 328 327 327 327 327 326 325 325 325 325 326 327 325 323 322 324 325 325 326 327 327 327
302 302 303 302 301 301 301 301 300 300 299 300 301 301 301 301 301 302 302 303 303 303 303 303 303 303 303 302 302 302 302 302 302 302 302 302 302 303 303 303 303 303 302 302 302 301 301 303 303 305 311 316 317 318 320 322 324 324 323 324 325 325 326 327 327 327 327 327 328 327 327 326 325 325 324 325 325 325 324 323 322 323 326 327 326 325 326 327
302 302 303 302 302 301 301 300 300 299 299 300 301 301 300 301 301 302 302 303 303 303 303 303 303 303 303 303 303 302 302 303 302 301 302 303 303 303 303 303 303 303 302 302 301 301 302 303 304 305 309 314 316 317 319 322 323 324 323 323 323 325 327 326 325 326 326 327 327 327 326 325 325 324 323 322 322 322 323 323 323 322 323 326 325 324 325 326
302 302 303 303 301 300 300 300 300 299 299 301 301 301 301 301 301 301 302 302 302 303 303 303 303 303 303 303 303 303 304 303 302 302 303 303 303 303 303 303 303 303 302 302 301 301 302 304 304 305 308 311 315 317 319 322 323 324 324 322 321 323 325 325 325 326 326 325 325 325 325 325 324 322 321 320 321 322 322 323 324 323 321 323 324 324 324 325
302 302 303 303 301 300 300 300 300 299 299 301 301 301 301 301 301 301 301 302 302 302 303 303 303 303 303 303 303 304 304 303 303 303 303 302 302 302 303 303 303 303 302 301 301 301 302 304 304 304 306 310 314 317 319 322 323 323 323 321 321 323 324 324 324 324 323 323 324 323 321 322 321 321 320 318 319 321 322 323 324 324 322 322 323 323 324 325
302 302 303 302 301 300 300 300 300 299 300 301 301 301 301 300 301 300 300 301 302 302 303 303 303 303 303 303 303 304 304 303 303 303 303 303 303 303 303 303 303 303 302 302 301 301 302 304 304 304 305 308 311 316 319 321 322 322 321 321 321 323 323 323 323 322 321 321 322 321 319 319 319 321 321 317 319 320 322 323 323 323 322 322 323 323 324 325
302 303 303 302 301 300 300 300 299 299 300 301 301 301 301 300 300 300 299 300 301 301 302 303 304 303 303 303 303 304 303 303 303 303 303 303 303 303 303 302 302 302 302 301 302 302 303 304 304 303 304 307 310 315 320 320 321 321 321 320 321 321 321 322 322 321 321 321 321 321 319 319 319 321 320 317 318 320 321 321 320 321 319 320 322 323 323 324
302 303 303 302 301 300 300 300 299 299 301 301 301 301 301 300 300 300 299 300 301 301 302 303 304 303 303 303 304 304 303 303 303 302 303 303 303 303 303 303 302 302 302 302 302 303 304 305 305 305 305 307 311 316 320 320 320 321 321 321 321 320 320 321 321 321 322 321 320 321 322 321 319 319 317 317 318 319 320 319 318 319 318 318 321 322 322 323
302 303 303 301 300 300 300 300 299 299 301 301 301 301 301 300 300 300 300 301 301 301 302 303 303 303 303 303 303 303 303 303 302 302 303 303 303 303 303 303 302 301 302 302 302 304 305 305 306 306 306 307 312 318 319 319 321 321 321 322 322 322 321 319 319 321 321 320 319 323 327 323 317 316 315 316 317 318 318 317 317 318 317 317 319 320 322 322
302 303 302 301 300 300 300 300 299 300 301 301 301 301 300 300 300 300 300 302 301 302 303 303 303 303 303 303 303 303 303 303 303 303 303 303 303 303 302 302 302 301 303 303 303 304 304 305 306 306 306 306 312 318 318 319 320 320 321 322 323 324 322 319 319 321 321 320 318 323 329 323 315 314 315 316 317 317 317 316 315 316 316 315 317 319 320 322
302 303 302 301 300 300 300 300 299 300 301 301 301 301 300 300 300 300 301 301 302 302 303 303 303 303 303 303 303 303 304 303 303 303 303 304 303 303 302 302 302 301 303 303 302 303 304 305 305 306 307 308 311 316 319 320 320 319 320 320 320 322 322 319 319 320 321 320 317 322 328 322 315 314 314 315 317 317 316 315 314 314 314 315 317 319 320 321
302 302 302 301 300 300 300 300 299 300 301 301 301 301 300 300 300 300 301 301 302 302 303 303 303 302 303 304 304 304 304 304 303 303 304 304 304 304 303 302 302 301 303 303 302 303 304 304 306 307 311 313 313 317 319 320 321 320 320 319 318 319 321 320 319 319 320 319 318 322 325 320 316 314 313 315 316 316 316 315 315 314 313 314 317 319 320 321
302 302 302 301 300 300 300 300 299 300 301 301 301 300 300 300 300 300 300 301 302 302 303 303 303 303 303 303 304 304 303 304 304 304 305 304 304 304 303 303 303 301 303 303 302 303 303 305 307 308 312 315 315 317 320 321 321 320 319 318 317 318 319 319 320 319 319 321 320 321 321 319 316 314 314 315 316 316 316 315 315 314 313 314 316 318 319 320
302 302 302 300 300 300 300 300 299 300 301 301 301 300 300 300 300 300 300 301 302 303 304 304 303 304 304 304 304 303 303 304 305 305 305 304 304 304 304 304 304 303 304 303 303 303 305 307 309 310 313 316 316 317 321 322 321 319 318 318 317 317 317 318 320 319 319 321 320 320 320 317 314 313 314 315 316 316 316 316 315 314 314 314 315 317 318 319
302 302 302 300 300 300 300 299 299 300 300 301 301 300 300 300 299 300 300 300 302 303 304 303 303 304 304 304 303 303 303 305 305 305 305 304 303 304 304 305 304 304 304 304 304 305 307 309 311 312 313 315 316 316 319 320 319 318 319 318 318 317 316 317 319 319 319 320 320 321 319 316 314 314 314 315 316 316 316 316 315 315 314 314 315 316 317 319
302 302 301 300 300 300 300 299 300 300 300 301 300 300 300 300 300 301 300 300 301 302 302 302 302 303 303 303 303 303 304 305 305 305 306 305 304 305 305 305 305 304 304 303 304 307 309 310 311 312 313 314 315 313 315 318 318 318 319 318 317 317 316 316 318 318 318 320 319 319 317 315 315 314 314 315 316 316 316 316 316 315 315 315 315 316 316 318
301 302 301 300 300 300 299 299 299 300 300 301 300 300 300 299 300 300 300 300 301 301 301 301 302 303 303 303 303 304 304 305 305 305 306 305 305 305 304 305 304 303 305 305 306 310 311 310 311 312 310 310 310 311 315 317 317 317 317 317 317 316 315 315 317 317 318 320 317 316 316 316 315 314 314 314 315 316 316 316 316 316 315 316 317 317 317 317
301 301 301 300 299 299 299 299 300 300 300 300 300 300 299 299 299 299 299 301 301 301 300 302 303 303 303 303 303 304 304 305 306 306 306 306 305 305 304 305 305 305 307 307 308 311 312 312 312 310 308 308 309 312 317 317 316 317 315 316 317 315 314 314 314 316 319 320 317 315 316 316 315 314 313 314 315 316 316 316 317 316 316 316 317 317 317 318
301 301 301 300 299 299 299 299 299 300 300 300 300 300 299 299 299 298 299 301 302 301 300 302 303 303 303 304 303 304 305 305 305 306 306 306 306 305 306 307 307 308 310 310 309 309 312 312 310 308 307 310 313 314 317 318 318 317 315 317 317 314 315 316 314 316 319 319 317 316 317 316 315 314 313 314 314 314 315 316 316 317 317 317 318 318 318 319
301 301 301 300 300 299 298 299 299 299 300 300 300 300 299 299 299 298 299 301 302 301 300 302 303 302 303 303 303 304 305 305 304 305 306 307 307 307 307 307 308 309 309 310 310 310 311 310 308 308 308 311 315 316 318 320 319 318 317 317 316 315 317 317 315 316 318 318 318 318 319 318 316 316 315 314 313 314 314 314 315 317 317 318 318 318 319 321
301 301 301 300 300 299 298 299 299 299 299 299 300 300 299 299 299 299 300 301 302 301 301 303 303 303 303 303 304 304 305 305 304 305 305 306 307 307 307 306 307 310 310 310 311 311 311 308 308 311 311 312 316 317 316 318 319 319 319 317 316 316 317 316 315 316 318 319 318 318 322 322 317 318 318 315 314 314 314 314 315 316 316 317 318 319 319 320
301 301 301 300 300 299 299 299 299 299 299 299 299 299 299 299 299 299 299 301 301 300 302 303 303 304 304 303 304 304 305 306 305 305 305 305 306 307 307 307 307 308 308 310 310 309 309 308 309 311 312 313 316 315 312 314 321 321 318 318 318 318 317 316 316 318 320 321 318 317 322 323 320 319 318 316 316 316 314 314 315 315 315 316 318 319 319 320
301 301 301 300 299 299 299 299 299 299 299 299 299 299 299 299 299 299 300 301 300 300 301 303 303 304 303 303 304 306 307 306 306 306 305 306 305 306 308 308 308 308 306 307 310 309 307 307 309 311 313 314 315 314 309 312 321 320 317 319 319 318 316 316 317 318 318 318 318 318 319 322 323 320 317 315 317 317 315 315 315 315 315 315 316 318 319 319
301 301 301 300 299 299 299 300 299 299 299 299 299 299 299 299 299 299 301 302 299 299 302 302 303 304 303 303 304 305 305 304 306 307 305 306 306 306 308 307 307 308 306 308 312 309 305 306 308 309 312 313 312 310 308 312 319 318 316 318 319 318 317 317 319 319 318 319 322 319 316 321 324 318 315 315 317 318 317 316 316 315 315 315 315 316 317 318
301 301 301 300 299 299 299 299 299 299 299 299 299 299 299 300 300 299 301 301 299 300 302 302 304 303 303 305 305 304 303 303 305 306 305 306 306 307 307 305 306 309 308 310 311 308 305 304 303 305 310 311 309 308 308 311 317 316 316 317 318 318 319 319 320 320 319 320 322 316 313 320 323 317 315 316 317 320 319 317 317 316 315 315 315 316 316 317
301 301 300 299 299 299 299 299 299 299 299 299 299 300 300 300 300 301 302 300 299 300 301 302 303 301 302 305 306 303 303 303 303 304 306 306 305 306 304 304 306 309 309 309 308 306 305 303 302 303 306 305 306 308 307 310 315 316 316 317 318 319 320 320 321 321 321 320 318 313 310 317 321 317 316 318 317 318 319 317 317 317 315 315 316 316 317 316
301 301 300 299 299 299 299 299 299 299 299 299 299 300 300 300 300 302 302 299 299 301 301 302 301 301 301 303 304 302 303 304 302 304 306 305 305 305 304 306 307 309 310 309 309 308 306 306 305 304 303 303 307 312 311 312 316 316 315 317 318 319 320 320 320 321 321 320 315 310 310 315 320 318 316 316 316 315 317 318 317 317 316 316 316 317 318 317
301 300 300 299 299 299 299 300 299 299 299 299 300 300 300 301 300 301 300 299 300 300 300 300 300 301 300 301 302 301 302 304 303 302 303 303 304 303 303 305 305 308 311 309 310 311 309 308 306 305 303 303 309 316 317 316 317 316 315 318 320 320 320 320 319 319 319 317 312 310 313 316 318 317 314 314 314 313 315 317 316 317 317 316 316 316 317 317
301 300 300 299 299 300 300 300 299 299 298 299 300 300 301 303 301 299 299 300 300 298 298 299 299 299 299 302 302 300 301 303 303 303 302 303 305 303 302 302 301 306 310 309 309 311 311 310 309 309 307 305 308 316 320 318 317 317 317 318 320 320 320 320 318 316 318 315 310 310 314 317 317 315 313 313 311 309 311 312 313 313 314 315 314 315 315 316
300 300 300 299 299 299 299 300 299 298 299 300 300 301 304 303 300 298 300 301 299 296 296 297 297 299 300 301 300 299 303 304 302 303 304 304 305 304 304 304 302 304 307 308 308 309 311 312 310 310 308 306 306 308 313 316 319 318 314 314 316 317 319 319 317 317 317 314 311 311 314 317 318 314 310 309 307 305 306 307 308 310 311 312 312 312 313 314
300 300 299 298 299 299 299 299 298 298 299 300 301 303 304 301 297 298 301 300 299 298 297 296 298 302 302 301 299 298 302 304 302 302 303 303 304 303 303 303 301 302 305 308 308 307 310 311 310 308 306 304 304 302 304 313 321 318 311 311 313 313 313 313 312 312 313 314 314 314 314 315 315 311 306 305 305 305 305 305 306 309 311 312 312 312 312 312
300 299 299 299 299 298 299 299 298 299 299 301 305 304 302 300 297 298 300 299 298 298 298 298 299 303 304 302 301 299 300 302 302 302 303 301 301 302 301 301 301 300 303 307 308 308 311 311 311 310 306 304 304 303 301 307 318 317 311 310 309 306 308 311 309 307 309 315 314 311 314 314 313 311 306 304 306 306 306 306 307 308 310 313 314 314 313 312
299 299 299 299 299 298 299 298 298 299 299 302 306 302 297 297 296 296 298 298 297 296 298 301 299 300 302 302 302 301 301 302 301 303 304 302 302 302 300 300 301 300 300 303 307 309 310 312 312 310 310 307 302 302 302 301 308 314 312 309 305 304 307 311 312 310 311 314 312 308 311 313 313 313 309 306 308 308 307 307 307 308 311 312 313 313 313 312
299 299 298 298 299 299 299 299 300 300 300 303 306 299 296 296 294 294 296 296 296 296 298 301 299 298 300 302 302 300 300 303 302 301 302 303 304 302 300 300 301 300 298 300 306 309 309 313 313 310 311 309 303 305 308 304 304 308 309 305 305 309 311 310 311 313 312 312 310 307 306 307 310 314 311 308 308 308 308 307 308 310 313 313 312 312 312 311
299 299 299 298 299 299 299 300 300 300 302 305 305 300 296 296 294 294 295 295 295 296 299 300 298 298 298 300 301 299 299 302 301 300 301 303 304 302 299 299 301 301 299 300 305 307 307 312 315 312 310 309 306 306 309 307 304 304 305 304 303 306 308 307 307 308 310 310 308 307 306 306 308 310 309 308 306 305 306 308 310 312 312 312 312 313 313 312
299 300 299 298 299 299 299 300 300 302 304 302 300 298 295 295 296 294 296 296 295 296 298 298 297 299 299 298 298 298 298 299 300 301 302 302 304 302 299 298 299 300 300 301 303 303 305 311 314 312 310 309 307 303 301 302 302 304 306 305 304 303 303 304 303 301 305 308 307 307 307 306 306 305 305 306 304 302 303 307 310 310 310 312 313 314 314 314
300 301 300 298 299 299 299 300 297 297 300 297 295 296 295 296 296 295 296 296 295 295 296 296 297 298 299 299 298 297 298 299 299 300 301 301 304 303 299 297 297 298 300 303 304 302 305 311 312 310 308 307 304 298 295 297 298 300 303 303 303 303 304 307 305 300 301 304 305 305 307 306 305 303 302 303 303 302 301 303 306 307 309 313 314 315 315 314
301 302 300 298 299 299 300 301 294 291 296 297 295 296 297 297 296 295 295 295 295 295 295 296 296 296 297 299 298 297 299 300 299 300 301 300 302 302 298 296 296 296 300 304 304 301 302 307 309 308 305 304 300 295 293 294 294 296 299 299 300 302 305 308 307 304 301 300 300 302 305 306 304 300 300 301 301 301 299 300 302 305 308 313 314 315 315 315
302 301 299 299 300 299 300 301 297 294 296 295 293 294 296 296 295 295 295 294 296 295 295 296 296 296 297 296 297 298 300 301 300 300 301 299 299 300 297 296 297 297 300 304 304 301 302 306 308 308 305 302 298 294 292 292 294 299 300 297 298 300 301 304 305 305 303 301 301 304 305 306 304 300 298 299 298 299 299 300 302 303 306 311 313 314 315 315
301 300 299 300 300 300 301 303 302 299 295 293 294 295 294 294 294 295 295 295 296 295 296 297 295 295 296 294 296 299 298 301 301 299 300 299 299 299 296 296 297 297 300 303 302 302 304 305 307 309 308 305 303 301 301 300 300 302 300 297 297 297 297 301 303 304 304 301 301 304 305 305 305 301 299 299 298 300 301 301 303 304 305 309 312 313 313 314
301 300 299 299 300 300 301 301 302 301 298 297 297 296 295 295 295 295 294 295 295 294 295 297 295 295 295 294 297 297 296 300 303 300 299 299 299 298 296 296 297 297 298 298 297 300 302 301 303 308 307 306 306 305 305 305 303 302 300 299 298 297 297 302 305 306 306 301 298 304 306 305 305 303 302 302 302 303 303 303 305 305 304 306 310 313 314 314
300 300 300 299 299 299 299 298 298 301 301 301 300 296 296 297 296 294 294 294 294 293 294 295 294 295 296 296 299 300 297 297 300 301 300 300 300 298 296 297 296 297 297 296 294 297 300 299 299 305 307 304 305 303 298 298 304 306 304 302 300 298 297 301 306 308 307 302 302 304 304 304 305 304 303 303 303 303 303 303 304 305 304 305 308 312 314 313
300 301 301 300 300 299 298 297 297 299 300 302 301 298 297 298 296 295 295 294 294 294 294 294 294 297 299 299 301 302 299 298 300 301 300 299 299 298 297 297 296 296 297 296 295 298 304 304 298 301 305 299 298 297 292 294 302 305 304 303 302 299 298 301 307 307 304 304 307 305 300 302 306 305 304 304 303 303 303 303 303 303 304 305 307 310 312 312
300 300 298 299 301 301 300 300 297 296 297 299 299 297 298 299 297 297 296 294 293 294 296 296 296 297 299 300 302 302 302 303 303 302 301 299 299 300 300 298 296 296 296 296 296 297 305 306 298 298 302 295 292 293 290 293 297 297 299 302 301 300 300 304 306 303 303 307 309 304 300 303 306 305 305 305 304 303 303 303 303 303 303 303 305 308 310 311
299 299 298 299 300 298 298 298 296 296 298 299 298 298 299 300 299 298 296 295 295 294 296 299 299 298 299 300 302 303 304 305 305 304 303 301 300 301 303 302 299 296 296 298 296 295 301 304 296 296 300 296 293 291 289 292 296 297 299 299 298 299 300 302 303 300 302 306 304 300 299 301 303 304 304 305 304 303 303 303 303 303 303 303 303 305 307 309
299 300 299 299 299 295 295 296 296 299 299 299 300 298 297 300 300 297 295 296 298 296 295 299 300 297 296 298 301 303 303 303 305 304 302 302 302 302 303 304 301 298 298 300 298 297 300 301 294 295 300 300 296 292 290 291 294 300 302 298 296 298 299 299 300 299 301 304 302 300 301 303 304 304 303 304 303 302 302 302 303 303 303 303 303 304 305 307
300 300 299 300 300 296 295 295 296 299 300 300 301 299 298 300 299 297 297 296 297 297 297 299 300 297 294 296 300 302 301 301 303 302 301 301 303 301 300 300 299 300 302 301 299 301 303 300 295 298 303 303 299 296 295 295 295 300 305 301 298 299 301 300 300 300 302 305 306 303 305 308 307 303 302 303 301 301 302 302 303 303 303 303 304 304 304 305
300 300 299 301 301 297 296 295 295 299 301 300 299 298 299 299 296 297 300 297 294 296 296 296 298 298 297 299 300 300 299 299 300 300 300 300 299 298 298 297 297 300 302 301 299 299 300 302 300 299 303 304 299 297 300 301 302 304 305 303 300 299 300 299 298 299 300 303 306 306 308 309 305 302 303 304 302 301 302 302 302 303 302 303 303 304 304 305
Wind_Speed
10 11 12 12 12 10 9 8 7 5 4 2 1 3 4 3 5 5 7 8 10 11 11 12 13 14 14 15 15 15 14 14 12 12 11 11 9 8 9 7 6 8 9 11 10 11 10 8 6 8 9 11 13 16 19 19 19 12 5 11 12 11 12 13 15 10 8 11 13 17 19 16 11 10 10 11 11 15 15 8 9 10 12 18 21 35 40 36
10 11 12 12 12 10 9 8 6 5 3 1 2 4 4 4 5 6 7 9 11 11 12 13 13 14 15 15 15 14 14 13 12 12 10 8 7 6 7 6 5 7 8 9 9 9 9 7 6 9 11 10 12 16 17 17 20 14 4 9 12 11 9 9 13 11 9 12 16 20 19 14 13 15 14 11 11 15 13 9 10 13 17 19 26 38 38 37
10 11 11 11 11 10 9 8 6 4 2 1 3 4 5 5 5 5 8 10 12 13 13 14 14 14 14 14 15 14 13 13 10 8 5 3 4 5 6 6 6 6 7 9 9 9 8 6 7 9 11 11 12 16 16 16 18 15 8 7 10 9 6 3 9 10 10 18 20 20 18 11 13 16 13 11 13 15 13 12 14 17 22 26 33 39 38 39
10 10 11 11 10 10 9 7 6 4 1 2 4 5 5 4 4 5 8 11 13 14 14 14 14 14 14 15 15 13 13 11 6 2 1 2 4 6 7 8 8 7 8 8 9 8 8 7 8 9 11 10 13 15 16 17 14 12 10 7 7 8 7 3 7 9 12 23 23 20 18 13 15 14 13 16 13 11 13 14 15 21 28 33 38 39 39 40
10 10 11 11 10 9 9 7 5 3 1 3 5 6 5 4 4 5 8 11 13 14 15 15 14 13 13 14 14 13 11 7 1 2 2 5 8 8 9 10 9 9 9 9 9 8 7 7 7 8 10 10 13 14 17 21 13 9 8 3 5 11 8 3 8 12 15 22 22 20 18 16 17 12 14 18 10 8 13 11 15 26 31 35 39 40 40 40
9 10 10 11 10 9 8 7 5 2 1 4 6 6 5 4 3 5 7 10 12 14 15 15 15 13 12 14 15 13 9 5 3 4 7 9 9 9 10 11 10 10 10 9 9 7 7 8 7 8 10 9 13 13 15 21 13 7 6 2 5 11 8 7 10 15 19 20 19 19 17 19 20 11 13 14 4 7 13 11 17 27 32 37 39 38 40 41
9 9 10 11 9 8 8 7 4 1 2 5 6 6 4 3 2 4 7 9 11 14 14 15 15 13 12 14 16 14 10 7 7 7 7 8 10 11 12 11 11 11 10 10 9 8 8 9 8 9 9 8 13 15 16 20 14 8 6 6 5 5 8 13 15 19 23 20 17 19 18 20 19 12 14 10 4 11 16 15 21 25 30 38 39 37 40 40
9 9 10 10 8 8 8 6 4 0 3 6 7 6 4 2 2 4 6 9 11 13 14 16 15 13 12 14 16 14 10 6 4 5 7 9 11 12 13 13 12 12 11 10 10 9 10 10 10 8 8 9 10 13 18 18 13 10 8 9 6 3 8 13 16 20 22 20 19 21 17 16 15 14 13 7 9 16 17 19 25 28 29 35 38 38 38 37
9 9 10 10 8 8 8 6 3 2 5 6 7 6 3 1 2 5 7 9 11 12 14 16 15 14 13 14 16 12 6 4 4 7 10 12 12 13 14 14 13 12 11 11 10 10 11 10 11 9 6 9 8 11 20 16 10 11 10 10 8 9 12 13 16 18 18 20 24 20 13 13 15 14 8 5 12 19 19 21 28 32 32 34 36 36 36 35
8 9 10 9 7 7 8 5 2 3 6 7 7 5 3 0 3 5 7 10 11 13 14 14 15 15 13 15 15 8 6 5 6 10 13 14 13 12 13 13 13 12 11 10 10 11 12 10 9 10 7 7 9 11 20 15 8 12 13 11 12 13 13 15 18 18 19 19 22 19 12 13 13 8 4 6 14 19 23 25 29 33 33 34 34 34 33 33
8 10 10 9 7 7 7 4 1 4 7 7 7 5 3 1 3 6 9 11 12 13 14 14 15 13 13 16 12 7 8 8 8 12 14 15 13 11 11 11 11 11 10 9 9 10 12 10 8 10 6 5 8 12 17 14 11 18 19 12 11 13 9 13 17 20 21 13 16 21 15 10 7 4 4 10 15 20 27 28 29 30 29 31 33 33 33 32
9 10 10 8 7 7 7 4 1 5 7 8 7 4 2 1 4 6 10 11 13 14 14 14 13 12 14 16 10 7 9 9 10 14 15 15 12 11 11 10 10 9 8 7 8 9 10 9 8 10 6 3 7 9 12 14 16 20 18 10 8 11 7 7 11 17 16 9 18 23 13 5 4 5 8 13 17 19 26 28 27 28 25 28 31 32 32 32
9 9 9 8 7 7 6 3 1 6 8 8 7 4 2 2 4 7 10 11 12 14 15 14 11 13 16 11 6 8 10 10 12 14 14 14 12 12 12 11 9 8 7 6 7 8 9 7 7 11 9 6 5 5 10 17 17 14 11 7 6 8 5 3 5 11 9 11 23 17 5 4 3 6 10 15 20 21 25 26 26 27 25 26 29 30 31 31
9 9 8 7 7 7 5 2 2 6 8 8 6 5 3 3 5 8 10 10 12 14 15 12 10 15 14 7 6 9 10 11 12 13 12 11 11 11 11 10 9 7 7 6 7 8 9 7 6 9 11 10 8 5 11 15 13 9 7 4 2 4 5 3 3 9 8 12 19 8 3 6 5 5 9 15 21 22 24 23 24 28 26 25 27 29 29 29
8 8 8 7 7 7 5 1 3 6 8 8 7 5 3 4 5 8 9 9 12 14 13 10 11 15 9 5 6 9 13 13 11 10 10 10 10 9 8 9 9 8 6 6 7 8 8 7 6 7 9 10 9 7 10 9 8 7 6 3 2 2 4 4 2 6 6 10 10 5 4 6 6 6 10 16 20 21 22 19 22 27 26 26 28 29 29 28
8 8 7 7 6 6 4 1 3 7 8 7 6 5 3 4 6 8 8 8 12 13 10 7 14 13 4 5 9 11 17 15 10 10 11 11 9 9 8 7 8 7 6 6 7 7 8 7 6 6 6 6 7 7 7 6 6 5 4 4 1 3 4 3 2 3 5 11 4 5 6 7 6 7 11 17 18 20 22 19 20 24 26 27 28 29 29 29
7 7 7 7 6 6 4 0 4 7 7 7 6 5 3 4 6 7 6 7 11 12 6 5 15 11 5 6 13 15 19 15 9 10 11 10 8 8 7 5 5 5 5 5 6 6 7 6 5 5 5 4 6 7 6 5 6 5 4 4 4 4 4 3 2 1 5 10 4 3 7 7 9 11 13 17 18 20 21 18 18 22 25 26 27 28 28 28
7 7 7 6 6 5 3 1 5 7 7 7 6 4 3 5 6 5 5 7 11 9 3 5 14 7 5 10 16 18 19 12 8 11 11 9 6 5 4 3 3 3 4 3 4 5 6 5 3 3 3 3 6 6 6 6 9 10 8 6 6 5 4 3 2 1 4 6 7 8 9 9 12 12 12 15 18 21 21 19 18 21 24 24 25 26 27 28
7 7 7 6 6 5 2 2 6 7 7 7 6 3 3 5 5 3 4 7 8 6 2 7 11 4 7 16 18 19 16 7 8 12 10 7 5 2 3 2 1 2 3 2 4 5 5 4 3 3 4 6 7 3 2 5 10 12 10 9 10 7 3 3 1 3 2 6 9 9 11 13 13 11 11 14 17 18 19 18 17 18 21 22 23 24 26 28
6 6 6 6 5 4 1 3 6 7 6 7 5 3 2 4 3 2 5 6 4 5 4 8 8 6 12 17 16 16 11 4 8 13 9 5 3 1 2 1 2 3 2 1 3 3 5 4 2 2 3 5 4 2 3 6 12 11 10 10 11 9 5 3 2 3 4 3 7 9 13 14 13 11 12 15 17 16 16 17 15 16 21 23 21 21 24 26
6 6 6 5 5 4 1 4 6 7 6 6 5 2 1 3 2 3 7 5 3 6 7 8 8 9 13 13 13 15 11 5 9 13 10 4 2 1 1 1 2 2 1 2 0 2 4 4 0 4 4 6 6 4 2 11 13 10 11 10 8 7 5 2 2 5 4 2 5 9 13 11 11 11 11 14 14 15 17 17 15 15 20 24 23 21 22 23
5 5 5 5 4 3 2 5 6 6 6 5 4 1 1 2 3 5 6 4 4 5 9 10 9 12 16 13 12 14 11 7 9 14 12 5 3 2 0 1 1 1 2 1 2 4 3 3 3 6 5 5 5 3 6 14 12 9 8 7 6 5 5 2 6 6 5 3 4 9 10 8 8 9 9 11 9 10 15 16 18 19 20 23 25 24 23 23
4 5 5 4 3 2 2 5 6 6 5 4 3 1 1 2 4 6 6 4 4 5 10 11 9 13 17 13 13 13 8 6 8 14 15 7 4 5 3 2 1 1 2 3 4 5 4 3 6 7 4 3 0 1 8 12 9 8 7 4 5 5 4 1 3 1 4 2 6 10 8 5 6 7 6 8 6 6 11 13 16 19 20 23 26 25 24 24
3 5 4 3 3 2 2 5 5 5 4 4 3 2 2 3 5 6 6 3 3 5 10 10 9 14 16 13 14 12 6 6 9 14 15 9 5 5 4 2 2 3 2 4 5 4 3 3 7 4 1 3 5 9 9 9 7 7 7 5 6 6 3 3 5 6 4 3 5 8 6 4 4 6 4 5 4 3 7 9 13 17 18 20 23 23 23 24
3 4 4 2 2 1 3 5 5 4 3 3 3 2 3 4 5 5 5 1 2 6 10 9 8 12 15 14 15 10 4 5 11 15 14 9 5 2 2 3 1 3 2 2 6 5 3 8 7 2 3 2 5 7 1 3 7 6 3 5 9 9 7 9 10 7 4 3 2 3 3 2 2 4 5 5 4 4 6 8 12 15 16 18 20 21 21 22
3 4 3 1 1 2 3 5 4 4 3 3 2 2 3 4 6 4 3 1 1 5 9 9 7 10 14 15 16 7 2 4 10 15 15 9 6 1 1 2 1 3 2 0 4 3 4 10 8 3 4 3 5 5 5 2 8 6 1 5 10 10 10 11 8 3 2 4 2 1 2 2 2 3 5 6 7 8 7 9 12 13 15 20 22 23 23 24
3 4 2 0 1 2 3 4 4 5 4 2 1 1 3 4 4 3 2 1 2 5 7 8 6 10 13 14 15 5 1 7 8 12 16 10 7 2 1 2 1 3 1 1 2 2 4 8 7 5 4 3 4 4 5 4 6 5 1 6 11 11 11 9 5 4 4 4 2 1 2 3 4 2 3 4 7 9 9 11 12 13 17 22 25 25 26 26
3 4 1 1 1 1 2 3 3 5 4 2 0 2 1 2 2 2 1 1 3 5 5 6 6 11 12 9 14 9 1 9 6 8 15 10 8 5 4 4 1 3 2 2 2 2 3 6 6 4 4 4 2 1 5 4 5 3 1 7 9 8 8 6 5 6 3 2 3 4 5 2 4 1 2 1 5 8 10 11 12 14 17 21 25 26 28 27
3 3 0 2 1 1 2 2 3 4 4 2 1 2 1 1 1 1 1 0 3 4 4 7 7 12 13 6 13 13 5 8 8 7 11 10 9 7 6 3 2 7 7 5 5 1 1 3 3 2 2 3 3 3 4 4 3 4 6 10 7 5 4 2 4 4 1 1 3 5 6 2 4 1 1 2 4 8 9 7 10 15 18 21 24 27 28 27
2 2 1 2 1 1 2 2 2 4 4 2 2 3 2 3 1 1 2 0 2 3 5 7 6 11 14 6 9 14 8 8 12 10 9 11 11 10 6 1 1 6 9 10 7 1 2 2 1 2 2 1 3 3 3 2 6 10 10 8 6 4 3 2 3 1 1 3 3 5 6 2 3 2 4 4 2 5 6 5 7 12 16 20 23 27 29 29
2 1 2 2 2 2 2 2 3 4 4 3 3 2 1 2 0 2 2 1 1 4 5 5 4 7 10 4 5 11 6 6 12 11 9 9 11 13 8 2 1 2 5 7 5 1 1 3 2 2 4 4 1 3 3 3 9 10 6 4 5 4 2 1 1 2 1 3 3 5 6 4 2 2 4 5 2 2 4 5 7 11 14 18 23 28 29 30
1 1 2 2 2 2 2 2 2 4 4 3 3 1 1 0 1 1 1 3 2 3 2 2 4 5 5 1 3 8 5 4 8 7 5 4 5 8 6 4 3 0 4 4 2 2 2 3 2 1 3 8 3 4 6 5 6 6 4 3 2 2 2 2 2 1 3 3 3 5 5 2 2 3 3 6 4 3 3 3 5 9 12 16 21 26 29 31
1 2 3 2 3 2 3 3 3 4 4 2 2 1 1 1 1 1 2 2 2 2 2 2 4 4 5 3 5 6 3 2 6 5 3 2 3 3 2 5 5 2 2 3 2 4 2 2 6 4 3 9 6 3 5 4 5 5 4 1 1 2 4 4 2 1 2 2 2 3 3 1 1 1 2 4 2 2 3 3 5 7 8 11 15 20 25 29
2 2 3 3 3 3 3 3 3 4 3 2 1 1 3 2 1 1 2 2 1 2 2 2 4 4 2 2 3 5 1 2 4 6 4 3 4 4 2 6 9 3 1 2 2 5 3 2 8 6 2 8 6 1 1 3 4 3 1 1 0 2 2 3 1 1 3 2 1 1 1 1 2 2 2 1 1 1 3 5 6 7 8 10 13 16 20 23
3 3 3 3 3 3 3 4 4 4 1 1 1 1 3 1 2 2 1 2 2 2 1 1 3 2 2 3 2 2 2 2 4 4 5 5 3 5 5 5 9 6 2 1 2 1 2 2 4 2 2 5 4 2 2 1 2 1 1 1 1 2 1 2 2 2 2 2 1 0 1 1 0 2 2 1 1 2 3 4 5 5 7 10 13 17 19 21
4 4 3 4 4 4 4 4 4 2 0 1 1 2 1 1 2 2 1 1 1 2 1 0 2 2 3 2 2 3 2 2 5 4 3 4 1 3 5 3 5 6 3 2 2 0 2 2 3 2 1 2 3 3 2 1 0 1 0 1 1 2 0 3 3 2 0 1 2 1 1 1 2 2 2 2 3 4 4 4 4 4 5 8 11 16 19 22
5 4 4 4 5 4 4 4 3 2 1 1 2 2 0 0 1 2 1 2 1 1 1 1 2 3 2 2 3 6 4 2 4 4 2 2 1 3 5 3 2 3 4 2 1 1 2 3 2 2 1 2 3 2 1 1 1 1 1 3 0 1 0 1 2 2 0 1 2 1 1 1 1 2 3 3 3 5 6 5 4 3 4 6 8 12 16 19
6 5 4 4 5 5 4 4 2 1 1 1 3 2 1 1 1 2 1 2 2 2 1 1 1 1 1 0 2 5 6 3 3 4 2 2 2 2 5 4 1 3 6 4 1 1 1 3 2 0 0 3 3 1 1 3 5 3 3 3 1 0 1 1 1 2 1 2 2 0 1 2 2 1 2 2 1 1 3 3 3 3 3 4 6 9 12 14
6 5 3 4 5 5 4 3 2 1 1 1 2 1 1 1 2 2 1 0 1 2 0 1 1 1 0 1 1 2 3 3 3 2 1 2 3 2 3 3 2 5 8 6 2 1 2 2 2 0 1 2 3 2 1 3 4 3 2 1 1 1 2 2 2 1 0 2 2 1 1 0 0 0 2 3 4 3 0 2 3 2 2 3 5 8 11 13
7 3 2 5 6 5 4 3 2 0 1 1 1 1 1 1 2 2 2 1 0 1 0 1 1 0 0 1 1 1 2 3 2 1 2 2 2 2 3 3 3 7 9 4 1 1 2 0 2 1 1 1 2 4 2 2 2 1 1 1 2 2 1 1 2 2 2 1 1 1 2 2 1 0 1 2 3 3 1 2 1 1 1 2 4 7 9 12
8 2 2 6 6 5 5 3 4 3 2 1 1 1 1 1 2 2 1 1 0 1 0 1 1 0 0 0 0 0 1 2 2 1 1 1 1 2 3 4 4 6 7 2 1 2 2 1 2 1 2 2 2 1 1 1 2 2 2 2 2 1 1 1 3 1 1 1 1 0 3 2 2 1 1 2 1 1 2 2 2 1 1 2 3 6 8 11
7 1 3 7 7 6 5 3 4 3 2 2 2 2 2 1 2 2 2 2 0 1 0 1 1 0 0 0 1 1 1 1 2 1 0 1 2 2 3 7 7 5 4 0 1 2 2 1 3 2 1 2 1 1 1 1 2 2 1 1 1 1 1 2 2 2 1 1 1 1 1 2 2 1 1 2 3 3 3 3 3 2 2 4 4 6 8 11
6 2 5 9 8 7 4 2 1 1 2 2 2 2 2 2 1 2 2 1 1 1 0 1 0 0 0 0 0 1 0 0 1 1 1 1 2 2 4 8 8 5 3 0 0 2 1 0 2 2 1 1 1 1 1 2 2 1 0 2 2 1 2 2 2 1 1 1 1 1 1 2 2 1 2 3 4 5 4 3 3 2 3 6 7 7 9 11
6 4 6 8 7 6 3 1 1 1 1 2 2 2 2 1 1 1 2 2 1 1 1 1 1 1 1 0 0 1 0 0 0 1 1 0 1 2 4 7 6 4 3 2 2 3 2 0 1 1 1 0 1 1 2 1 0 1 1 2 2 2 2 1 1 0 1 1 1 1 2 3 2 1 1 2 3 3 2 2 2 2 4 8 9 8 9 10
6 4 5 7 6 5 3 2 4 4 2 3 3 2 2 2 1 1 1 2 2 1 1 1 1 2 1 0 1 2 1 1 1 0 1 1 1 2 4 6 5 4 3 3 4 4 1 1 2 0 1 1 0 0 0 0 1 1 1 1 1 2 2 1 0 1 1 1 1 2 1 2 1 2 2 1 1 0 1 1 2 3 3 8 11 10 10 11
5 2 2 4 5 4 1 3 6 6 4 3 4 2 1 2 1 0 0 1 3 3 2 1 2 2 1 0 1 2 2 2 1 1 0 2 1 1 4 5 4 3 3 3 5 3 3 2 3 1 1 2 1 1 1 1 1 1 1 2 1 2 2 1 1 2 1 3 2 2 0 3 3 2 2 1 1 0 1 1 1 3 4 6 12 13 12 13
3 1 2 3 3 2 2 3 5 5 5 6 4 2 4 2 1 1 1 1 2 3 2 1 1 1 1 2 1 1 1 1 1 1 1 2 2 2 4 4 3 2 2 3 5 2 2 1 2 2 3 3 2 2 2 1 2 2 2 2 1 0 0 1 2 0 3 2 1 0 1 2 2 0 1 2 2 2 3 4 5 7 7 6 11 14 14 15
3 2 4 4 2 1 1 4 7 5 5 5 2 2 5 3 2 3 2 1 1 2 2 1 1 2 2 2 2 2 1 1 1 1 0 1 2 2 3 2 2 3 2 3 4 3 1 1 1 2 2 2 2 2 1 1 2 2 3 3 2 2 3 3 2 2 4 3 1 3 3 5 5 4 3 4 5 7 10 13 14 14 12 9 10 14 16 16
4 2 4 5 3 2 2 5 10 9 4 3 2 2 4 5 5 3 1 2 1 2 2 1 2 3 2 2 1 2 2 1 1 1 2 1 1 2 1 1 2 3 2 2 3 2 1 2 1 1 2 1 2 2 1 2 2 3 5 5 4 3 4 4 2 1 3 4 2 2 4 9 10 8 9 11 12 13 15 14 12 12 12 12 12 13 16 17
5 3 5 5 3 5 6 7 10 7 2 0 1 3 4 6 6 3 2 3 2 2 4 3 2 2 1 3 1 0 2 3 1 1 4 3 0 1 0 1 1 2 3 2 2 2 1 1 2 1 1 1 0 1 1 1 2 4 5 4 3 2 3 3 2 1 2 4 3 2 4 9 7 6 9 11 9 9 9 8 6 6 7 10 14 15 16 16
7 4 5 5 3 3 5 5 4 2 0 2 2 4 4 5 6 4 3 3 2 2 6 5 6 6 2 3 3 3 2 4 1 2 6 4 1 1 1 1 1 1 2 2 1 3 2 2 2 1 1 1 1 1 2 2 3 6 7 6 6 5 3 3 3 4 5 3 2 2 4 5 2 1 4 6 6 8 9 7 6 5 4 6 10 14 17 17
9 6 6 5 2 2 4 3 1 1 2 2 3 4 4 5 8 8 3 2 4 3 5 9 12 7 1 1 4 4 2 3 2 2 6 5 3 4 3 4 3 2 1 1 1 2 1 2 2 0 1 2 1 2 3 4 3 3 3 3 6 6 4 3 3 5 7 5 4 4 4 1 2 1 2 3 5 7 9 8 8 8 8 8 10 11 13 15
Wind_Direction
6 3 1 1 1 358 359 354 353 359 8 48 112 125 120 105 81 51 24 9 4 356 348 346 346 346 344 339 335 334 332 330 325 318 306 296 295 290 291 299 306 314 318 321 320 313 308 301 269 229 219 211 210 205 199 199 191 185 214 216 214 215 210 202 197 182 139 136 151 164 164 153 149 163 152 146 148 145 150 149 156 160 154 163 170 167 164 162
3 3 3 1 3 3 359 355 355 359 7 46 135 134 123 107 76 42 24 17 14 6 359 356 353 351 347 343 341 337 333 329 324 314 302 290 285 290 299 307 305 308 315 318 315 303 300 293 261 222 208 207 206 198 194 190 184 186 214 222 221 217 208 205 193 165 139 150 151 164 172 157 152 156 155 155 153 153 146 137 151 144 144 157 162 164 164 162
360 2 2 0 1 1 359 356 357 1 2 86 135 133 122 101 66 41 32 26 19 11 6 1 355 351 349 350 347 340 334 328 319 303 292 285 288 303 309 309 302 305 308 311 309 292 289 278 245 219 208 213 203 192 191 182 183 193 196 217 230 215 190 162 174 156 142 151 147 162 166 144 147 149 155 165 160 168 166 154 158 150 149 156 161 164 163 163
359 359 359 358 357 358 359 356 356 353 344 146 140 135 124 95 62 47 35 27 20 14 11 2 354 352 352 353 349 346 339 321 299 258 272 322 317 308 304 310 305 304 302 302 302 287 279 264 238 219 210 216 203 193 193 182 181 190 192 218 223 201 191 152 161 149 143 154 151 155 153 140 152 152 154 157 157 184 186 173 169 160 156 157 162 164 164 166
356 355 356 355 352 356 356 353 352 339 257 156 145 140 125 97 65 45 31 24 18 14 10 2 356 352 352 353 350 353 345 318 209 127 325 316 314 305 300 306 303 304 301 294 293 279 263 245 232 217 212 217 200 196 198 187 177 179 193 243 197 195 198 169 162 151 145 152 149 153 154 149 154 155 162 162 163 190 184 179 172 165 160 160 162 163 165 168
353 352 354 353 350 353 351 347 347 338 195 157 149 145 128 100 63 36 22 17 13 10 6 1 356 351 351 350 347 353 350 312 267 290 305 310 308 303 300 300 299 301 298 291 282 262 248 234 223 209 210 219 204 201 197 188 186 190 193 184 191 204 189 158 163 155 148 146 148 157 154 145 146 148 166 170 163 169 174 171 163 162 163 164 164 163 165 168
350 349 352 352 351 352 349 344 342 346 164 157 153 150 133 103 53 23 8 7 7 3 0 358 354 348 344 344 345 344 327 293 282 288 299 304 301 299 297 295 296 297 294 290 274 250 236 225 219 209 212 220 207 205 194 185 193 202 181 159 185 208 167 159 161 158 154 146 143 148 144 147 151 147 158 166 141 159 172 171 164 159 161 165 165 165 166 168
346 348 351 350 352 351 348 343 337 159 164 161 158 155 142 109 33 4 355 358 360 357 354 351 348 344 338 338 341 333 310 284 281 297 307 306 300 295 293 291 289 290 289 283 267 245 230 223 217 207 214 220 215 212 195 183 193 203 172 148 152 139 145 154 151 150 148 142 139 136 137 150 151 140 141 141 147 163 171 168 169 165 162 165 165 167 167 167
345 346 347 348 351 347 345 342 330 167 166 167 163 160 152 113 12 350 347 349 351 354 349 344 339 337 334 332 334 327 306 287 286 304 312 312 306 296 290 287 284 284 282 274 260 237 224 228 220 209 230 231 235 223 196 186 191 193 165 143 139 137 149 145 135 137 135 138 140 127 118 133 135 131 118 108 149 165 169 166 170 170 166 166 167 169 168 166
344 343 345 349 349 343 343 341 318 168 166 169 169 167 167 86 353 340 342 343 347 350 345 340 334 331 330 330 329 321 318 311 300 308 311 313 310 300 293 285 281 280 276 269 255 231 220 230 227 215 238 249 248 227 202 195 176 157 137 131 138 136 150 146 133 134 129 134 141 128 117 131 134 134 123 136 151 163 163 162 170 169 166 167 169 170 167 167
345 343 345 347 346 341 343 341 289 167 167 171 174 173 174 334 338 335 342 343 344 345 343 339 333 330 328 326 318 305 322 319 310 313 309 311 311 303 298 289 284 278 273 267 248 230 223 230 228 209 216 253 238 220 207 192 153 137 121 112 130 122 132 143 138 143 135 136 148 130 119 130 128 110 135 148 154 166 159 155 164 164 162 166 170 170 168 168
345 343 344 347 343 340 343 342 201 167 168 173 178 180 190 301 324 333 344 345 342 340 339 337 334 334 328 319 306 303 321 315 313 314 305 307 308 303 301 293 291 280 267 263 243 229 226 227 218 208 218 260 219 209 204 175 143 136 122 105 131 119 117 132 141 155 142 143 149 129 115 130 119 111 136 153 157 163 155 149 156 158 161 168 171 170 168 168
343 343 345 343 340 341 343 344 175 167 170 175 180 187 208 297 319 336 346 344 339 337 336 335 334 336 327 312 301 321 327 315 315 312 301 300 301 300 298 291 292 278 255 253 243 229 225 224 217 221 238 258 231 202 181 164 147 136 120 117 146 127 123 110 138 164 141 143 151 140 143 157 115 122 138 156 160 156 150 150 155 159 166 171 171 170 168 169
341 342 342 339 342 340 338 348 162 171 173 176 185 195 228 297 318 339 344 341 338 336 335 332 333 337 325 298 305 329 332 324 320 314 300 294 296 300 294 284 283 268 249 245 238 231 228 229 228 231 238 246 252 203 163 163 156 139 114 115 171 142 136 99 137 171 146 154 164 164 203 164 139 148 150 159 162 154 147 150 157 162 169 171 169 169 168 169
340 339 339 339 341 336 336 350 167 174 174 178 189 201 244 298 322 338 339 338 337 335 335 330 331 334 316 291 317 326 333 332 324 318 309 300 299 302 294 281 276 258 239 238 236 234 229 233 237 235 237 241 245 207 163 159 155 147 132 127 287 153 128 90 130 199 169 158 185 207 162 152 152 163 164 163 162 155 145 148 158 162 167 169 168 170 169 168
338 336 338 339 338 338 338 328 168 173 177 182 193 207 251 298 324 334 331 334 338 335 333 332 334 331 293 321 340 331 336 338 325 319 317 309 299 297 297 286 273 249 228 234 238 234 226 236 243 239 249 244 225 196 158 136 144 158 155 145 164 133 122 106 114 260 170 140 187 231 146 132 153 167 168 163 164 158 148 149 158 161 165 168 169 171 170 169
335 337 339 340 339 339 340 153 166 173 178 184 196 216 262 303 321 326 323 332 342 338 323 332 338 325 237 326 341 330 333 337 329 326 324 320 305 293 299 294 274 244 227 242 238 231 227 231 236 229 241 242 220 196 163 146 148 143 130 121 126 133 131 153 157 241 170 147 150 168 133 125 140 155 165 166 166 161 153 152 159 163 166 169 171 172 171 170
334 339 341 342 344 344 350 146 166 172 177 189 200 224 273 311 317 312 320 334 345 343 301 338 349 337 240 320 331 325 329 334 342 342 338 341 330 303 300 291 280 229 209 232 222 218 220 215 223 224 228 241 227 203 175 166 154 146 145 130 125 134 139 169 181 204 186 158 133 128 125 126 133 145 163 168 167 164 161 160 162 166 167 169 172 173 174 173
336 343 344 344 349 352 357 155 162 170 179 191 202 236 283 325 318 285 326 336 351 4 321 337 356 354 293 313 321 325 329 332 352 352 346 351 358 357 331 297 266 189 191 199 186 199 218 195 194 216 215 229 214 205 233 156 141 143 141 131 134 133 140 177 132 329 235 138 125 134 134 136 140 147 158 163 168 165 163 164 162 166 169 169 171 176 178 177
339 347 346 346 355 2 23 153 160 172 183 191 208 246 313 351 331 284 335 331 353 10 345 333 340 323 309 313 323 335 339 338 360 358 348 349 359 358 349 3 152 178 205 231 166 186 224 178 161 246 233 251 245 309 313 112 115 122 117 117 131 130 138 179 97 333 273 131 110 129 135 142 147 150 154 158 164 163 161 166 162 165 172 174 174 177 181 181
341 351 347 350 2 9 77 157 164 173 183 196 214 237 43 14 343 331 340 322 315 347 349 343 332 330 333 332 338 348 352 360 12 9 0 352 347 306 348 61 174 181 100 315 226 174 219 169 125 312 307 297 306 303 177 109 101 105 110 115 121 127 140 155 344 330 315 46 98 122 131 143 149 150 155 154 159 165 167 171 169 170 176 180 183 183 183 184
343 353 349 354 6 18 112 158 166 176 189 202 215 230 42 19 348 340 338 308 290 331 350 348 332 336 348 352 352 353 356 358 7 12 13 15 15 23 75 131 189 145 118 242 196 160 167 107 4 328 318 296 312 301 139 112 102 98 100 113 114 129 132 58 323 328 5 47 112 127 130 136 144 143 152 157 158 167 174 178 176 176 179 184 188 189 187 186
343 354 354 358 11 43 136 162 168 180 193 206 222 252 340 345 335 340 343 310 285 328 350 347 333 340 352 358 353 351 356 0 354 1 11 24 33 40 61 81 90 111 146 176 165 155 135 46 328 315 303 260 232 149 136 115 106 116 118 122 125 159 160 81 277 2 32 47 130 134 121 105 135 134 146 165 152 153 179 188 185 183 185 189 192 192 190 189
345 357 356 2 25 75 147 161 169 183 196 218 235 264 308 319 326 335 345 318 261 328 350 349 337 346 354 352 349 346 342 0 355 353 7 24 31 45 55 30 76 94 96 119 108 105 101 10 311 282 243 262 159 147 143 122 113 128 134 131 142 168 152 98 147 125 67 61 118 130 113 74 142 150 152 162 139 142 182 193 196 195 193 194 196 197 196 196
349 358 355 7 37 102 152 162 173 185 199 223 237 271 296 315 318 327 348 304 239 332 352 355 345 354 355 348 349 341 307 2 3 358 7 19 17 42 61 4 38 81 49 94 92 85 36 349 327 174 128 3 138 143 148 132 130 123 119 145 152 149 120 116 133 127 100 102 93 101 106 84 150 157 151 149 158 180 188 199 206 203 201 201 201 201 202 203
356 359 353 16 69 123 155 170 177 182 198 223 236 281 299 305 308 328 354 216 228 345 348 351 350 359 356 350 350 334 237 7 3 6 10 13 13 30 121 15 55 70 26 86 97 95 340 341 349 100 108 60 111 112 341 310 140 128 124 151 141 128 125 134 136 124 111 116 102 40 115 125 135 150 144 153 183 192 197 212 214 205 203 205 204 205 205 205
359 357 354 90 125 138 164 177 180 184 190 211 233 310 304 295 307 324 302 222 35 350 336 345 351 357 349 348 1 11 210 343 348 11 13 14 17 13 136 27 53 69 21 219 90 60 322 342 13 58 71 56 84 79 330 300 126 119 230 145 131 125 133 142 126 102 104 105 104 4 3 118 133 137 120 151 186 195 205 216 217 211 208 209 208 207 206 206
3 358 2 156 166 167 181 181 185 188 181 181 43 23 308 296 331 319 270 96 4 336 333 337 337 352 345 349 20 43 38 349 356 10 9 22 27 27 65 27 46 85 353 237 107 56 326 357 14 28 59 59 44 349 304 319 88 90 120 115 115 116 127 136 106 103 113 110 90 7 348 84 126 85 48 140 198 207 212 213 211 210 211 211 211 211 209 208
5 2 177 171 177 169 168 176 195 190 178 181 71 62 79 353 339 297 88 167 318 332 344 340 338 351 346 356 28 28 26 12 12 2 12 36 44 64 87 31 59 78 48 65 98 101 314 3 350 337 59 44 329 298 305 335 69 107 91 85 81 82 91 88 94 111 143 60 59 1 339 70 116 105 157 178 227 219 209 207 208 209 211 211 212 214 213 211
13 10 188 176 167 150 151 166 184 177 169 163 119 95 78 20 314 174 61 318 324 345 329 341 341 338 344 1 22 13 16 13 4 7 30 44 47 62 81 15 34 76 66 73 83 90 292 336 16 22 29 320 304 346 318 280 115 110 98 91 91 74 37 22 64 121 172 72 37 351 332 346 115 175 195 182 221 211 184 180 200 206 209 211 212 215 216 215
26 50 188 177 154 143 144 160 177 171 160 143 123 95 67 24 13 116 62 280 316 346 327 344 340 336 357 27 16 1 359 1 2 11 24 27 33 36 32 357 320 76 78 65 70 106 333 28 52 342 359 357 333 61 73 128 106 94 99 119 105 75 17 61 61 278 106 77 10 349 331 315 113 134 189 187 191 195 180 177 185 195 203 210 215 218 219 218
52 136 181 164 148 145 151 167 173 166 155 124 98 66 218 305 32 84 338 309 325 358 356 336 329 341 345 334 12 356 340 353 5 16 17 357 25 34 29 16 339 6 68 26 6 52 63 77 64 245 29 19 358 126 102 97 90 86 111 134 106 107 109 83 73 12 77 67 356 343 331 323 70 72 151 186 194 175 175 171 174 189 198 205 213 217 218 219
106 158 174 159 152 149 159 177 177 168 156 93 89 101 100 89 57 161 258 323 354 359 340 284 300 316 305 318 14 352 324 359 349 358 6 322 28 57 84 40 2 277 58 21 335 19 79 131 18 24 42 6 358 135 113 108 126 122 125 148 356 104 106 97 100 90 85 75 4 334 325 66 104 68 139 180 177 120 149 171 181 193 194 197 208 214 217 219
147 163 168 157 151 145 151 166 174 173 146 71 126 113 59 70 113 182 232 274 294 309 309 285 292 298 326 24 12 332 335 74 353 348 357 351 24 21 13 32 18 339 10 56 28 16 68 89 13 21 354 347 2 57 63 111 137 139 169 238 331 57 89 115 122 99 102 90 30 328 304 84 115 108 112 128 30 77 181 188 197 206 207 204 208 213 216 218
158 164 163 150 142 144 146 157 174 179 146 51 90 72 71 106 220 200 236 270 252 283 270 297 312 315 40 34 22 351 359 42 8 356 16 25 21 3 348 355 6 356 319 44 75 15 63 45 356 1 326 338 2 356 333 77 127 152 241 253 348 357 33 110 76 52 99 116 83 266 291 321 132 108 95 79 259 228 203 193 204 215 221 222 220 219 218 217
159 166 163 146 140 147 146 154 176 178 276 307 67 57 87 185 228 181 82 336 272 304 273 234 345 7 30 355 3 24 359 357 358 353 39 43 4 357 356 325 354 7 342 19 80 177 83 52 337 334 348 344 16 3 335 6 123 191 110 19 358 324 348 116 94 49 352 139 97 321 266 216 213 163 144 179 197 197 192 195 206 214 227 232 230 226 223 219
164 168 162 147 143 148 148 155 176 184 286 280 88 68 114 213 229 193 21 336 275 322 300 204 4 6 10 349 355 357 343 319 351 358 20 20 15 3 348 329 355 11 351 1 64 349 71 82 22 359 11 332 350 332 302 50 29 272 95 92 112 271 284 100 100 87 77 109 91 318 282 247 230 145 134 155 178 190 189 187 201 210 216 221 223 223 220 218
165 165 162 159 154 150 151 152 161 199 255 51 84 97 192 183 231 232 318 332 267 293 333 93 19 335 278 12 19 345 335 334 359 12 8 357 34 1 334 340 12 11 351 332 332 2 28 73 56 39 264 325 333 284 192 53 45 52 102 123 197 294 74 48 75 103 109 107 108 205 272 271 249 116 86 71 58 186 173 168 198 209 195 199 208 209 208 207
163 163 165 175 169 154 151 151 153 218 228 89 104 146 188 222 230 226 221 345 278 279 3 82 347 323 287 349 23 345 344 7 8 5 9 5 20 16 358 346 313 351 351 332 348 10 306 45 67 124 246 300 344 26 24 10 30 61 112 140 302 8 44 47 43 10 355 125 130 145 153 161 186 353 5 17 7 354 73 163 181 184 185 193 197 197 197 196
164 168 186 183 173 160 160 157 141 103 67 78 137 162 150 224 203 201 219 199 234 278 91 133 209 174 101 286 334 4 21 35 20 3 14 357 354 42 44 24 313 332 339 326 19 3 300 36 101 79 326 291 14 32 7 342 353 339 9 47 56 52 37 85 77 19 343 114 142 131 116 91 58 300 303 345 356 349 318 219 196 202 218 186 180 189 192 192
172 188 203 180 169 163 161 119 67 60 87 89 98 151 155 179 172 174 200 192 38 336 65 120 148 140 144 173 65 72 54 51 37 16 14 1 14 50 36 20 339 321 322 316 37 12 329 23 90 62 16 41 68 28 307 317 328 322 348 16 28 23 281 59 85 85 345 10 312 127 103 74 43 119 264 319 335 327 294 267 279 297 224 174 170 183 189 192
184 206 178 173 166 159 150 90 49 50 92 111 93 126 148 137 157 172 167 168 257 322 92 100 79 90 189 3 35 156 157 56 43 16 348 345 356 6 355 353 339 314 313 338 47 1 326 33 66 60 8 23 60 154 201 252 267 270 317 358 339 313 325 11 61 121 146 82 287 274 81 64 63 130 243 271 275 280 283 271 279 293 197 184 179 179 186 192
186 181 166 169 165 159 142 78 45 39 65 95 91 105 124 124 163 185 190 187 204 264 247 104 153 188 79 259 195 153 202 50 53 334 299 252 311 319 336 346 343 321 317 44 91 359 347 36 62 52 299 266 148 151 197 251 258 245 18 28 352 325 1 11 35 94 156 142 270 262 79 75 96 155 249 251 265 278 278 268 273 277 217 202 193 187 188 191
173 159 165 172 174 180 188 134 141 137 110 111 93 92 106 116 169 208 237 211 149 183 225 119 179 178 62 301 173 99 317 8 136 290 297 177 327 353 357 359 4 355 356 24 352 346 359 14 45 61 55 81 127 165 204 220 292 357 14 13 357 18 37 58 116 153 190 121 338 322 88 94 127 169 239 234 260 273 255 256 279 286 230 211 204 197 192 192
159 144 162 178 187 203 226 202 153 136 139 122 109 126 117 107 160 270 265 181 134 139 171 98 133 131 101 340 59 69 15 6 59 255 303 277 283 1 15 14 17 14 26 37 346 338 21 39 346 349 115 90 98 265 139 85 347 333 329 324 11 41 4 313 139 316 311 112 258 262 99 63 22 43 57 141 276 342 135 205 293 314 258 213 204 201 195 194
166 152 149 172 200 212 212 186 156 134 150 151 120 144 162 115 152 221 49 153 137 122 96 80 142 136 110 277 74 69 27 8 35 103 32 312 296 332 348 359 20 32 41 28 5 20 113 84 13 19 70 58 37 23 31 1 297 298 330 324 14 59 356 303 268 308 47 127 194 239 308 329 331 23 29 337 299 263 167 170 340 340 312 220 204 203 201 199
184 215 171 154 192 184 127 178 169 136 160 172 142 145 160 135 114 156 213 256 158 138 102 65 170 179 179 185 145 85 37 3 31 83 40 309 299 297 311 336 15 31 33 14 7 38 128 89 24 29 34 22 9 26 21 324 285 301 329 320 300 19 352 268 274 309 130 152 262 177 164 276 295 326 275 249 235 240 256 286 308 310 303 254 214 210 209 208
185 205 187 174 183 164 122 196 177 136 132 152 123 123 150 149 172 176 183 237 191 184 166 143 232 242 225 201 158 129 138 46 38 93 204 274 285 312 327 353 26 26 31 23 14 30 100 72 14 346 4 359 338 359 356 286 273 282 280 273 263 212 185 215 250 194 187 227 333 103 171 243 262 259 256 245 251 274 286 293 294 286 278 262 231 218 216 216
176 169 176 177 175 119 101 161 158 138 114 115 114 144 165 175 187 183 139 135 191 237 213 201 224 220 243 262 156 143 183 155 69 233 213 188 307 316 346 24 28 20 19 35 40 44 104 96 72 326 315 305 310 334 329 309 308 279 256 247 241 229 218 235 274 267 243 277 319 130 235 266 262 252 258 265 270 278 283 288 291 283 270 256 244 232 226 224
183 180 166 152 112 95 105 135 150 142 104 343 151 151 168 180 184 182 178 183 185 186 194 213 194 152 9 319 295 306 213 186 119 179 185 164 35 253 245 338 353 19 19 30 36 3 353 77 113 169 270 265 313 310 243 235 265 263 258 231 199 227 249 241 252 227 242 276 269 208 267 277 263 240 253 267 272 270 273 281 291 296 282 259 251 246 241 236
192 187 170 150 107 99 116 132 154 155 201 246 185 155 168 190 188 168 167 218 245 200 195 182 143 127 47 325 279 291 238 191 162 149 175 173 127 179 178 336 272 306 21 41 356 339 9 91 132 149 287 262 74 17 292 260 228 247 266 242 192 187 210 208 205 196 191 198 175 176 251 270 261 223 258 259 250 246 254 270 279 286 291 272 262 255 248 245
191 184 177 161 122 150 156 144 174 208 207 214 172 156 162 169 171 168 168 245 246 245 217 170 144 131 71 249 247 277 263 220 229 160 168 163 123 121 112 85 73 40 25 121 43 359 16 129 132 90 290 269 350 2 316 298 268 237 277 252 188 188 209 214 227 224 206 181 164 197 229 241 79 60 265 235 225 237 253 272 281 278 274 276 278 271 259 251